Weather History for KCNM - September, 2013

Change the Weather History Date:

Sunday, September 15, 2013

  Actual Average (WUND) Record (WUND)
Temperature  
Mean Temperature 75 °F -  
Max Temperature 87 °F - - (-1)
Min Temperature 64 °F - - (-1)
Cooling Degree Days 10    
Growing Degree Days 25 (Base 50)    
Moisture  
Dew Point 57 °F    
Average Humidity 55    
Maximum Humidity 78    
Minimum Humidity 35    
Precipitation  
Precipitation 0.00 in - - ()
Sea Level Pressure  
Sea Level Pressure 29.88 in    
Wind  
Wind Speed 4 mph (SW)    
Max Wind Speed 9 mph    
Max Gust Speed -    
Visibility 10 miles    
Events Rain , Thunderstorm    
Averages and records for this station are not official NWS values.
T = Trace of Precipitation, MM = Missing Value Source: NWS Daily Summary

Daily Weather History Graph

Daily Weather History Graph

Search for Another Location

Airport or City:

Trip Planner

Search our weather history database for the weather conditions in past years. The results will help you decide how hot, cold, wet, or windy it might be!

Date:

Astronomy

Sep. 15, 2013 Rise Set
Actual Time 6:41 AM MDT 7:02 PM MDT
Civil Twilight 6:16 AM MDT 7:27 PM MDT
Nautical Twilight 5:47 AM MDT 7:55 PM MDT
Astronomical Twilight 5:18 AM MDT 8:25 PM MDT
Moon 4:22 PM MDT (9/15) 2:33 AM MDT (9/15)
Length of Visible Light 13h 10m
Length of Day
12h 21m
Waxing Gibbous, 82% of the Moon is Illuminated
Sep 15
Waxing Gibbous
Sep 19
Full
Sep 26
Last Quarter
Oct 4
New
Oct 11
First Quarter

Hourly Weather History & Observations

Time (MDT) Temp. Heat Index Dew Point Humidity Pressure Visibility Wind Dir Wind Speed Gust Speed Precip Events Conditions
12:53 AM 70.0 °F - 53.1 °F 55% 29.82 in 10.0 mi South 5.8 mph - N/A   Clear
1:53 AM 69.1 °F - 54.0 °F 58% 29.82 in 10.0 mi SE 4.6 mph - N/A   Clear
2:53 AM 68.0 °F - 54.0 °F 61% 29.81 in 10.0 mi South 6.9 mph - N/A   Clear
3:53 AM 68.0 °F - 54.0 °F 61% 29.81 in 10.0 mi SSE 8.1 mph - N/A   Partly Cloudy
4:53 AM 66.9 °F - 54.0 °F 63% 29.81 in 10.0 mi SSE 5.8 mph - N/A   Clear
5:53 AM 64.0 °F - 57.0 °F 78% 29.84 in 10.0 mi Calm Calm - N/A   Clear
6:53 AM 66.0 °F - 57.9 °F 75% 29.87 in 10.0 mi Calm Calm - N/A   Clear
7:53 AM 69.1 °F - 57.9 °F 68% 29.89 in 10.0 mi Calm Calm - N/A   Clear
8:53 AM 71.1 °F - 55.9 °F 59% 29.90 in 10.0 mi Calm Calm - N/A   Scattered Clouds
9:53 AM 73.9 °F - 54.0 °F 50% 29.91 in 10.0 mi SE 3.5 mph - N/A   Clear
10:53 AM 73.9 °F - 55.0 °F 52% 29.92 in 10.0 mi Calm Calm - 0.00 in Rain Light Rain
11:53 AM 80.1 °F 80.4 °F 57.0 °F 45% 29.91 in 10.0 mi Variable 3.5 mph - 0.00 in   Scattered Clouds
12:53 PM 82.9 °F 82.1 °F 55.9 °F 39% 29.89 in 10.0 mi Calm Calm - N/A   Scattered Clouds
1:53 PM 84.0 °F 83.3 °F 57.0 °F 40% 29.87 in 10.0 mi South 4.6 mph - N/A   Partly Cloudy
2:53 PM 86.0 °F 84.9 °F 57.0 °F 37% 29.85 in 10.0 mi WNW 4.6 mph - N/A   Clear
3:53 PM 84.9 °F 83.7 °F 55.9 °F 37% 29.83 in 10.0 mi West 3.5 mph - N/A   Clear
4:41 PM 86.0 °F 84.5 °F 55.4 °F 35% 29.99 in 10.0 mi Calm Calm - N/A Thunderstorm Clear
4:53 PM 86.0 °F 84.7 °F 55.9 °F 36% 29.83 in 10.0 mi Calm Calm - N/A   Partly Cloudy
5:53 PM 82.9 °F 83.3 °F 61.0 °F 47% 29.85 in 10.0 mi NE 6.9 mph - N/A   Scattered Clouds
6:53 PM 80.1 °F 80.7 °F 59.0 °F 48% 29.87 in 10.0 mi NNE 9.2 mph - N/A   Scattered Clouds
7:53 PM 77.0 °F - 62.1 °F 60% 29.89 in 10.0 mi NNW 6.9 mph - N/A   Partly Cloudy
8:53 PM 75.9 °F - 60.1 °F 58% 29.94 in 10.0 mi North 5.8 mph - 0.00 in Rain Light Rain
9:53 PM 73.9 °F - 61.0 °F 64% 29.93 in 10.0 mi West 8.1 mph - 0.00 in   Clear
10:53 PM 72.0 °F - 63.0 °F 73% 29.95 in 10.0 mi WNW 5.8 mph - N/A   Clear
11:53 PM 70.0 °F - 62.1 °F 76% 29.94 in 10.0 mi WSW 4.6 mph - N/A   Clear